| time (UTC) | temp C | wind direction | speed KPH | gust KPH | rain 1hr cm | rain 24hr cm | rain mn cm | humidity % | barometer mb |
| 20260504050535 | 18 | 1 | 1.6 | 4.8 | 0.18 | 2.08 | 2.08 | 92 | 1030.2 |
| 20260504045534 | 18 | 4 | 3.2 | 4.8 | 0.18 | 2.06 | 2.06 | 92 | 1029.9 |
| 20260504045035 | 18 | 347 | 1.6 | 3.2 | 0.20 | 2.06 | 2.06 | 92 | 1029.8 |
| 20260504044533 | 18 | 358 | 0.0 | 3.2 | 0.18 | 2.03 | 2.03 | 92 | 1029.7 |
| 20260504044035 | 18 | 358 | 0.0 | 3.2 | 0.18 | 2.01 | 2.01 | 92 | 1029.5 |
| 20260504043535 | 18 | 353 | 1.6 | 3.2 | 0.20 | 2.01 | 2.01 | 92 | 1029.4 |
| 20260504043039 | 18 | 23 | 1.6 | 3.2 | 0.18 | 1.98 | 1.98 | 92 | 1029.4 |
| 20260504042533 | 18 | 349 | 1.6 | 3.2 | 0.20 | 1.98 | 1.98 | 92 | 1029.5 |
| 20260504042033 | 18 | 348 | 1.6 | 6.4 | 0.20 | 1.96 | 1.96 | 92 | 1029.7 |
| 20260504041532 | 18 | 328 | 3.2 | 6.4 | 0.18 | 1.93 | 1.93 | 92 | 1029.7 |
| 20260504041032 | 18 | 360 | 3.2 | 6.4 | 0.20 | 1.93 | 1.93 | 92 | 1029.7 |
| 20260504040532 | 18 | 18 | 0.0 | 3.2 | 0.20 | 1.91 | 1.91 | 92 | 1029.7 |
| 20260504040031 | 18 | 37 | 0.0 | 4.8 | 0.18 | 1.88 | 1.88 | 92 | 1029.7 |
| 20260504035531 | 18 | 342 | 1.6 | 4.8 | 0.20 | 1.88 | 1.88 | 92 | 1029.6 |
| 20260504035031 | 18 | 42 | 0.0 | 0.0 | 0.20 | 1.85 | 1.85 | 92 | 1029.5 |
| 20260504034530 | 18 | 42 | 0.0 | 1.6 | 0.23 | 1.85 | 1.85 | 92 | 1029.5 |
| 20260504034030 | 18 | 42 | 0.0 | 1.6 | 0.23 | 1.83 | 1.83 | 92 | 1029.5 |
| 20260504033530 | 18 | 42 | 0.0 | 3.2 | 0.23 | 1.80 | 1.80 | 92 | 1029.4 |
| 20260504033030 | 18 | 38 | 0.0 | 3.2 | 0.23 | 1.80 | 1.80 | 92 | 1029.4 |
| 20260504032532 | 18 | 11 | 1.6 | 3.2 | 0.23 | 1.78 | 1.78 | 92 | 1029.4 |
| 20260504032029 | 18 | 28 | 1.6 | 3.2 | 0.23 | 1.75 | 1.75 | 92 | 1029.5 |
| 20260504031532 | 18 | 28 | 0.0 | 1.6 | 0.25 | 1.75 | 1.75 | 91 | 1029.6 |
| 20260504031028 | 18 | 28 | 0.0 | 1.6 | 0.25 | 1.73 | 1.73 | 91 | 1029.6 |
| 20260504030528 | 18 | 28 | 0.0 | 3.2 | 0.25 | 1.70 | 1.70 | 91 | 1029.6 |
| 20260504030028 | 18 | 28 | 1.6 | 4.8 | 0.28 | 1.70 | 1.70 | 91 | 1029.7 |
| 20260504025527 | 18 | 19 | 1.6 | 4.8 | 0.28 | 1.68 | 1.68 | 91 | 1029.8 |
| 20260504025028 | 18 | 34 | 1.6 | 3.2 | 0.28 | 1.65 | 1.65 | 91 | 1029.7 |
| 20260504024533 | 18 | 63 | 0.0 | 3.2 | 0.28 | 1.63 | 1.63 | 91 | 1029.7 |
| 20260504024027 | 18 | 101 | 0.0 | 3.2 | 0.28 | 1.60 | 1.60 | 91 | 1029.6 |
| 20260504023527 | 19 | 53 | 0.0 | 4.8 | 0.28 | 1.57 | 1.57 | 91 | 1029.5 |
| 20260504023027 | 19 | 13 | 0.0 | 4.8 | 0.30 | 1.57 | 1.57 | 91 | 1029.5 |
| 20260504022527 | 19 | 128 | 0.0 | 3.2 | 0.30 | 1.55 | 1.55 | 91 | 1029.5 |
| 20260504022026 | 19 | 52 | 0.0 | 4.8 | 0.30 | 1.52 | 1.52 | 91 | 1029.7 |
| 20260504021526 | 19 | 325 | 1.6 | 4.8 | 0.30 | 1.50 | 1.50 | 91 | 1029.5 |
| 20260504021027 | 19 | 146 | 1.6 | 4.8 | 0.28 | 1.45 | 1.45 | 92 | 1029.5 |
| 20260504020526 | 19 | 1 | 1.6 | 4.8 | 0.28 | 1.42 | 1.42 | 92 | 1029.5 |
| 20260504020028 | 19 | 339 | 0.0 | 4.8 | 0.28 | 1.42 | 1.42 | 92 | 1029.3 |
| 20260504015526 | 19 | 334 | 1.6 | 3.2 | 0.28 | 1.40 | 1.40 | 92 | 1029.4 |
| 20260504015029 | 19 | 347 | 1.6 | 3.2 | 0.28 | 1.37 | 1.37 | 92 | 1029.4 |
| 20260504014536 | 19 | 317 | 1.6 | 3.2 | 0.25 | 1.35 | 1.35 | 92 | 1029.3 |
| 20260504014025 | 19 | 91 | 0.0 | 4.8 | 0.25 | 1.32 | 1.32 | 92 | 1029.3 |
| 20260504013524 | 20 | 360 | 1.6 | 4.8 | 0.25 | 1.30 | 1.30 | 92 | 1029.2 |
| 20260504013035 | 20 | 133 | 0.0 | 1.6 | 0.25 | 1.27 | 1.27 | 92 | 1029.1 |
| 20260504012524 | 19 | 133 | 0.0 | 3.2 | 0.23 | 1.24 | 1.24 | 92 | 1028.9 |
| 20260504012025 | 20 | 133 | 0.0 | 3.2 | 0.23 | 1.22 | 1.22 | 92 | 1028.9 |
| 20260504011525 | 20 | 162 | 0.0 | 3.2 | 0.20 | 1.19 | 1.19 | 92 | 1028.9 |
| 20260504011026 | 20 | 164 | 0.0 | 3.2 | 0.23 | 1.19 | 1.19 | 92 | 1029.0 |
| 20260504010524 | 20 | 164 | 0.0 | 1.6 | 0.20 | 1.17 | 1.17 | 91 | 1029.2 |
| 20260504010024 | 20 | 164 | 0.0 | 1.6 | 0.18 | 1.14 | 1.14 | 92 | 1029.5 |
| 20260504005524 | 20 | 164 | 0.0 | 1.6 | 0.15 | 1.12 | 1.12 | 91 | 1029.8 |
| 20260504005024 | 20 | 164 | 0.0 | 3.2 | 0.15 | 1.09 | 1.09 | 91 | 1030.0 |
| 20260504004531 | 20 | 167 | 0.0 | 4.8 | 0.15 | 1.09 | 1.09 | 91 | 1030.0 |
| 20260504004025 | 20 | 40 | 1.6 | 8.0 | 0.13 | 1.07 | 1.07 | 90 | 1029.9 |
| 20260504003523 | 20 | 323 | 1.6 | 4.8 | 0.10 | 1.04 | 1.04 | 90 | 1030.3 |
| 20260504003022 | 21 | 168 | 1.6 | 4.8 | 0.10 | 1.02 | 1.02 | 91 | 1030.1 |
| 20260504002522 | 21 | 203 | 0.0 | 6.4 | 0.10 | 1.02 | 1.02 | 90 | 1030.4 |
| 20260504002022 | 21 | 323 | 1.6 | 9.7 | 0.08 | 0.99 | 0.99 | 91 | 1030.2 |
| 20260504001522 | 21 | 165 | 1.6 | 6.4 | 0.08 | 0.99 | 0.99 | 91 | 1030.2 |
| 20260504001021 | 21 | 347 | 1.6 | 4.8 | 0.08 | 0.97 | 0.97 | 91 | 1029.9 |
| 20260504000522 | 21 | 341 | 0.0 | 6.4 | 0.08 | 0.97 | 0.97 | 91 | 1029.3 |
| 20260504000021 | 21 | 12 | 1.6 | 6.4 | 0.08 | 0.97 | 0.97 | 91 | 1028.8 |
| 20260503235524 | 21 | 142 | 0.0 | 1.6 | 0.08 | 0.94 | 0.94 | 91 | 1028.5 |
| 20260503235021 | 21 | 117 | 0.0 | 0.0 | 0.08 | 0.94 | 0.94 | 91 | 1028.1 |
| 20260503234522 | 22 | 117 | 0.0 | 0.0 | 0.08 | 0.94 | 0.94 | 92 | 1027.7 |
| 20260503234024 | 22 | 117 | 0.0 | 1.6 | 0.10 | 0.94 | 0.94 | 92 | 1027.6 |
| 20260503233522 | 22 | 117 | 0.0 | 3.2 | 0.10 | 0.94 | 0.94 | 92 | 1027.4 |
| 20260503233022 | 22 | 122 | 0.0 | 3.2 | 0.10 | 0.91 | 0.91 | 91 | 1027.3 |
| 20260503232519 | 22 | 105 | 0.0 | 1.6 | 0.10 | 0.91 | 0.91 | 91 | 1027.2 |
| 20260503232021 | 22 | 44 | 0.0 | 1.6 | 0.10 | 0.91 | 0.91 | 91 | 1027.1 |
| 20260503231520 | 22 | 44 | 0.0 | 1.6 | 0.13 | 0.91 | 0.91 | 91 | 1027.2 |
| 20260503231019 | 22 | 360 | 0.0 | 1.6 | 0.10 | 0.89 | 0.89 | 91 | 1027.2 |
| 20260503230520 | 22 | 360 | 0.0 | 1.6 | 0.13 | 0.89 | 0.89 | 91 | 1027.5 |
| 20260503230017 | 22 | 360 | 0.0 | 1.6 | 0.13 | 0.89 | 0.89 | 91 | 1027.7 |
| 20260503225517 | 22 | 360 | 0.0 | 3.2 | 0.13 | 0.86 | 0.86 | 90 | 1027.7 |
| 20260503225018 | 22 | 359 | 1.6 | 3.2 | 0.13 | 0.86 | 0.86 | 90 | 1027.7 |
| 20260503224517 | 22 | 285 | 0.0 | 3.2 | 0.15 | 0.86 | 0.86 | 89 | 1027.9 |
| 20260503224019 | 22 | 276 | 0.0 | 3.2 | 0.13 | 0.84 | 0.84 | 89 | 1027.8 |
| 20260503223516 | 22 | 184 | 0.0 | 3.2 | 0.15 | 0.84 | 0.84 | 89 | 1027.9 |
| 20260503223017 | 22 | 40 | 1.6 | 14.5 | 0.13 | 0.81 | 0.81 | 89 | 1027.9 |
| 20260503222515 | 22 | 49 | 6.4 | 14.5 | 0.15 | 0.81 | 0.81 | 89 | 1028.0 |
| 20260503222016 | 22 | 165 | 0.0 | 3.2 | 0.15 | 0.81 | 0.81 | 91 | 1027.9 |
| 20260503221516 | 23 | 15 | 0.0 | 3.2 | 0.13 | 0.79 | 0.79 | 90 | 1027.5 |
| 20260503221020 | 23 | 6 | 1.6 | 3.2 | 0.15 | 0.79 | 0.79 | 90 | 1027.5 |
| 20260503220518 | 23 | 7 | 1.6 | 4.8 | 0.13 | 0.76 | 0.76 | 90 | 1027.6 |
| 20260503220016 | 23 | 6 | 1.6 | 4.8 | 0.15 | 0.76 | 0.76 | 90 | 1027.6 |
| 20260503215515 | 23 | 14 | 1.6 | 4.8 | 0.13 | 0.71 | 0.71 | 89 | 1027.7 |
| 20260503215016 | 23 | 1 | 0.0 | 3.2 | 0.15 | 0.71 | 0.71 | 88 | 1027.7 |
| 20260503214518 | 23 | 1 | 0.0 | 3.2 | 0.15 | 0.71 | 0.71 | 88 | 1027.5 |
| 20260503214015 | 24 | 359 | 0.0 | 3.2 | 0.15 | 0.71 | 0.71 | 88 | 1027.7 |
| 20260503213515 | 24 | 319 | 0.0 | 1.6 | 0.15 | 0.69 | 0.69 | 88 | 1027.8 |
| 20260503213015 | 24 | 319 | 0.0 | 3.2 | 0.18 | 0.69 | 0.69 | 87 | 1027.8 |
| 20260503212515 | 24 | 189 | 0.0 | 3.2 | 0.18 | 0.66 | 0.66 | 87 | 1027.9 |
| 20260503212015 | 25 | 190 | 1.6 | 3.2 | 0.20 | 0.66 | 0.66 | 87 | 1027.7 |
| 20260503211514 | 25 | 190 | 0.0 | 0.0 | 0.23 | 0.66 | 0.66 | 87 | 1027.4 |
| 20260503211014 | 25 | 190 | 0.0 | 0.0 | 0.23 | 0.64 | 0.64 | 86 | 1027.4 |
| 20260503210515 | 25 | 190 | 0.0 | 1.6 | 0.25 | 0.64 | 0.64 | 85 | 1027.4 |
| 20260503210013 | 25 | 190 | 0.0 | 3.2 | 0.25 | 0.61 | 0.61 | 86 | 1027.5 |
| 20260503205512 | 25 | 179 | 0.0 | 3.2 | 0.28 | 0.61 | 0.61 | 83 | 1027.8 |
| 20260503205011 | 25 | 182 | 0.0 | 1.6 | 0.28 | 0.58 | 0.58 | 85 | 1027.9 |
| 20260503204511 | 24 | 110 | 0.0 | 3.2 | 0.28 | 0.56 | 0.56 | 86 | 1027.9 |
| 20260503204010 | 24 | 147 | 0.0 | 3.2 | 0.30 | 0.56 | 0.56 | 88 | 1027.8 |
| 20260503203514 | 23 | 9 | 0.0 | 0.0 | 0.30 | 0.53 | 0.53 | 91 | 1027.9 |
| 20260503203027 | 23 | 9 | 0.0 | 1.6 | 0.30 | 0.51 | 0.51 | 92 | 1028.0 |
| 20260503202509 | 23 | 9 | 0.0 | 1.6 | 0.30 | 0.48 | 0.48 | 92 | 1028.2 |
| 20260503202010 | 23 | 168 | 0.0 | 0.0 | 0.30 | 0.46 | 0.46 | 93 | 1028.2 |
| 20260503201510 | 22 | 168 | 0.0 | 0.0 | 0.30 | 0.43 | 0.43 | 92 | 1028.2 |
| 20260503201009 | 22 | 168 | 0.0 | 1.6 | 0.30 | 0.41 | 0.41 | 93 | 1028.4 |
| 20260503200508 | 22 | 168 | 0.0 | 3.2 | 0.28 | 0.38 | 0.38 | 93 | 1028.7 |
| 20260503200012 | 22 | 224 | 0.0 | 1.6 | 0.28 | 0.36 | 0.36 | 92 | 1028.6 |
| 20260503195509 | 22 | 341 | 0.0 | 0.0 | 0.25 | 0.33 | 0.33 | 92 | 1028.8 |
| 20260503195008 | 21 | 341 | 0.0 | 1.6 | 0.23 | 0.30 | 0.30 | 91 | 1029.0 |
| 20260503194512 | 21 | 341 | 0.0 | 3.2 | 0.23 | 0.28 | 0.28 | 90 | 1029.0 |
| 20260503194008 | 22 | 330 | 1.6 | 3.2 | 0.20 | 0.25 | 0.25 | 90 | 1029.1 |
| 20260503193508 | 22 | 197 | 0.0 | 1.6 | 0.20 | 0.23 | 0.23 | 89 | 1029.3 |
| 20260503193007 | 22 | 198 | 0.0 | 1.6 | 0.18 | 0.20 | 0.20 | 89 | 1029.4 |
| 20260503192506 | 22 | 184 | 0.0 | 1.6 | 0.15 | 0.18 | 0.18 | 89 | 1029.5 |
| 20260503192006 | 22 | 185 | 0.0 | 3.2 | 0.15 | 0.15 | 0.15 | 89 | 1029.4 |
| 20260503191506 | 22 | 161 | 0.0 | 1.6 | 0.13 | 0.13 | 0.13 | 91 | 1029.5 |
| 20260503191006 | 22 | 14 | 0.0 | 0.0 | 0.10 | 0.10 | 0.10 | 90 | 1029.4 |
| 20260503190505 | 22 | 14 | 0.0 | 3.2 | 0.10 | 0.10 | 0.10 | 90 | 1029.3 |
| 20260503190006 | 22 | 14 | 0.0 | 3.2 | 0.08 | 0.08 | 0.08 | 90 | 1029.3 |
| 20260503185508 | 22 | 49 | 0.0 | 0.0 | 0.08 | 0.08 | 0.08 | 90 | 1029.3 |
| 20260503185005 | 22 | 46 | 0.0 | 1.6 | 0.08 | 0.08 | 0.08 | 89 | 1029.4 |
| 20260503184505 | 23 | 46 | 0.0 | 1.6 | 0.05 | 0.05 | 0.05 | 89 | 1029.5 |
| 20260503184005 | 23 | 46 | 0.0 | 1.6 | 0.05 | 0.05 | 0.05 | 89 | 1029.5 |
| 20260503183504 | 23 | 46 | 0.0 | 3.2 | 0.03 | 0.03 | 0.03 | 87 | 1029.5 |
| 20260503183004 | 23 | 3 | 1.6 | 3.2 | 0.03 | 0.03 | 0.03 | 86 | 1029.5 |
| 20260503182505 | 24 | 152 | 0.0 | 1.6 | 0.03 | 0.03 | 0.03 | 86 | 1029.6 |
| 20260503182006 | 25 | 21 | 0.0 | 4.8 | 0.00 | 0.00 | 0.00 | 84 | 1029.6 |
| 20260503181505 | 25 | 17 | 1.6 | 4.8 | 0.00 | 0.00 | 0.00 | 81 | 1029.6 |
| 20260503181004 | 26 | 128 | 0.0 | 9.7 | 0.00 | 0.00 | 0.00 | 80 | 1029.5 |
| 20260503180504 | 26 | 17 | 1.6 | 9.7 | 0.00 | 0.00 | 0.00 | 75 | 1029.6 |
| 20260503180004 | 27 | 28 | 1.6 | 8.0 | 0.00 | 0.00 | 0.00 | 76 | 1029.6 |
| 20260503175504 | 27 | 11 | 1.6 | 8.0 | 0.00 | 0.00 | 0.00 | 74 | 1029.6 |
| 20260503175003 | 26 | 266 | 1.6 | 11.3 | 0.00 | 0.00 | 0.00 | 74 | 1029.7 |
| 20260503174503 | 26 | 112 | 3.2 | 6.4 | 0.00 | 0.00 | 0.00 | 74 | 1029.7 |
| 20260503174002 | 26 | 68 | 1.6 | 6.4 | 0.00 | 0.00 | 0.00 | 75 | 1029.7 |
| 20260503173503 | 26 | 283 | 0.0 | 6.4 | 0.00 | 0.00 | 0.00 | 75 | 1029.9 |
| 20260503173002 | 26 | 96 | 3.2 | 6.4 | 0.00 | 0.00 | 0.00 | 74 | 1029.9 |
| 20260503172503 | 26 | 14 | 0.0 | 8.0 | 0.00 | 0.00 | 0.00 | 74 | 1029.9 |
| 20260503172001 | 26 | 106 | 1.6 | 8.0 | 0.00 | 0.00 | 0.00 | 72 | 1029.9 |
| 20260503171605 | 26 | 141 | 0.0 | 6.4 | 0.00 | 0.00 | 0.00 | 76 | 1029.9 |
| 20260503171100 | 26 | 262 | 0.0 | 6.4 | 0.00 | 0.00 | 0.00 | 74 | 1029.9 |
| 20260503170558 | 26 | 63 | 0.0 | 4.8 | 0.00 | 0.00 | 0.00 | 76 | 1029.9 |
| 20260503150530 | 22 | 1 | 0.0 | 3.2 | 0.00 | 0.00 | 0.00 | 89 | 1030.3 |
| 20260503131009 | 19 | 13 | 1.6 | 3.2 | 0.00 | 0.00 | 0.00 | 92 | 1029.6 |
| 20260503130513 | 19 | 13 | 1.6 | 4.8 | 0.00 | 0.00 | 0.00 | 92 | 1029.5 |
| 20260503110557 | 18 | 1 | 3.2 | 4.8 | 0.00 | 0.00 | 0.00 | 91 | 1029.0 |
| 20260503100108 | 18 | 15 | 0.0 | 3.2 | 0.00 | 0.00 | 0.00 | 91 | 1028.2 |
| 20260503081556 | 18 | 1 | 1.6 | 4.8 | 0.00 | 0.00 | 0.00 | 91 | 1028.4 |
| 20260503081048 | 18 | 4 | 1.6 | 4.8 | 0.00 | 0.00 | 0.00 | 91 | 1028.4 |
| 20260503080547 | 18 | 11 | 1.6 | 3.2 | 0.00 | 0.00 | 0.00 | 91 | 1028.5 |